Home > Weather > Prenzlau > Past weeks

Flag for Germany Past Weather in Prenzlau, Brandenburg, Germany — Yesterday and Last 2 Weeks

Now
66 °F

Passing clouds.


Feels Like: 66 °F
Forecast: 53 / 69 °F
Wind: 14 mph from West

Location: Szczecin Airport

Current Time: Aug 29, 2016 at 9:32:43 AM

Latest Report: Aug 29, 2016 at 9:00 AM


Visibility: N/A

Pressure: 29.89 "Hg

Humidity: 83%

Dew Point: 61 °F

Location of PrenzlauLocation

Past Weather in Prenzlau — Graph

°F

Prenzlau Temperature Yesterday

Maximum temperature yesterday: 84 °F (at 12:30 PM)
Minimum temperature yesterday: 57 °F (at 5:30 AM)
Average temperature yesterday: 66 °F

High & Low Weather Summary for the Past Weeks

 TemperatureHumidityPressure
High88 °F (Aug 26, 3:30 PM)100% (Aug 16, 12:00 AM)30.33 "Hg (Aug 16, 12:00 AM)
Low45 °F (Aug 17, 5:00 AM)27% (Aug 26, 4:30 PM)29.77 "Hg (Aug 18, 5:30 AM)
Average63 °F79%30.06 "Hg
* Reported Aug 14 8:00 AM — Aug 29 8:30 AM, Prenzlau, Weather by CustomWeather, © 2016

Note: Actual official high and low records may vary slightly from our data, if they occured in-between our weather recording intervals... More about our weather records

Advertising

Prenzlau Weather History for the Previous 24 Hours

Scroll right to see more
 ConditionsComfort  
Time TempWeatherWind HumidityBarometerVisibility
8:30 AM
Mon, Aug 29
64 °FPassing clouds.9 mph88%29.89 "HgN/A
8:00 AM64 °FPassing clouds.9 mph88%29.89 "HgN/A
7:30 AM64 °FPassing clouds.7 mph88%29.86 "HgN/A
7:00 AM64 °FPassing clouds.7 mph88%29.86 "HgN/A
6:30 AM63 °FClear.6 mph94%29.86 "Hg5 mi
6:00 AM64 °FFog.9 mph94%29.86 "Hg3 mi
5:30 AM64 °FPassing clouds.9 mph94%29.86 "HgN/A
5:00 AM64 °FPassing clouds.8 mph94%29.86 "HgN/A
4:30 AM64 °FPassing clouds.6 mph94%29.86 "HgN/A
4:00 AM64 °FPassing clouds.7 mph94%29.86 "HgN/A
3:30 AM64 °FPassing clouds.6 mph94%29.86 "HgN/A
3:00 AM64 °FPassing clouds.5 mph100%29.86 "HgN/A
2:30 AM64 °FClear.8 mph100%29.86 "Hg10 mi
2:00 AM64 °FClear.5 mph100%29.83 "Hg10 mi
1:30 AM66 °FPassing clouds.3 mph94%29.83 "HgN/A
1:00 AM66 °FClear.5 mph94%29.86 "Hg10 mi
12:30 AM68 °FPassing clouds.10 mph88%29.86 "HgN/A
12:00 AM68 °FThunderstorms. Passing clouds.17 mph94%29.92 "Hg3 mi
11:30 PM
Sun, Aug 28
70 °FRain showers. Passing clouds.14 mph88%29.92 "Hg1 mi
11:00 PM72 °FThunderstorms. Passing clouds.14 mph78%29.83 "HgN/A
10:30 PM73 °FThundershowers. Passing clouds.5 mph69%29.80 "HgN/A
12:30 PM84 °FSunny.12 mph43%29.92 "Hg10 mi
11:00 AM79 °FSunny.3 mph51%29.98 "Hg10 mi
10:30 AM77 °FPassing clouds.8 mph57%29.98 "HgN/A
10:00 AM73 °FSunny.12 mph61%29.98 "Hg10 mi
9:30 AM72 °FSunny.12 mph65%29.98 "Hg10 mi
9:00 AM70 °FSunny.12 mph64%29.98 "Hg10 mi
Weather by CustomWeather, © 2016

See weather overviewHow to use our weather pages